Location: Middle Street
(51.7167°N, 0.0333°E)
Time: 23:30:04
(UTC+00:00)

Cosmos 489 Rocket - Pass Details

Date: 20 January 2021
Orbit: 952 x 983 km, 74.0° (Epoch: 01 March)

Event Time Altitude Azimuth Distance (km) Brightness Sun altitude
Rises 18:25:16 0° 334° (NNW) 3,703 7.7 -17.7°
Reaches altitude 10° 18:27:50 10° 334° (NNW) 2,751 7.1 -18.1°
Maximum altitude 18:34:14 87° 247° (WSW) 991 4.5 -19.1°
Drops below altitude 10° 18:40:34 10° 159° (SSE) 2,723 6.7 -20.0°
Sets 18:43:05 0° 159° (SSE) 3,663 7.4 -20.4°
